Вернуться в каталог

STARLINK-3072

АктивенСвязьVLEO
NORAD 49153·PAYLOAD·🇺🇸 United States

Запущен Sep 14, 2021 с Vandenberg Space Force Base

Loading…

Ближайшие Пролёты (ближайшие 24 часа)

TLE

СвежийSource: CelesTrak SupGP

Эпоха: Sep 15, 2026, 02:16 UTC

1 49153C 21082Z   26258.09493056  .00037782  00000+0  31671-2 0  2588
2 49153  70.0000 136.8985 0002909 274.0873  64.0105 14.98301343    15

Отслеживайте STARLINK-3072 в реальном времени с AllMySat

Download on the App Store